{"data":{"norad_id":62197,"epoch":"2026-09-21T10:23:02.415840Z","epoch_age_seconds":97053,"freshness":"FRESH","line1":"1 62197U 24229F   26264.43266685  .00004960  00000+0  18968-3 0  9997","line2":"2 62197  43.0007 245.6127 0001387 264.5792  95.4902 15.27574007100493","mean_motion":15.27574007,"eccentricity":0.0001387,"inclination_deg":43.0007,"raan_deg":245.6127,"arg_perigee_deg":264.5792,"mean_anomaly_deg":95.4902,"bstar":0.00018968,"rev_number":10049,"period_min":94.267118542297,"perigee_km":482.11539229576,"apogee_km":484.01869029682,"semimajor_km":6861.2040412963,"source":"CELESTRAK","updated_at":"2026-09-22T09:00:49.539883Z"}}